Terminal Aerodrome Forecast
Issued by NWS Sioux Falls, SD

Home | Current Version | Previous Version | Graphics & Text | Print | Product List | Glossary On
Versions: 1 2 3 4 5 6 7 8 9 10 11 12 13 14 15 16 17 18 19
000
FTUS43 KFSD 160209 AAB
TAFFSD
TAF AMD
KFSD 160209Z 1602/1624 34022G30KT 2SM -SN OVC015
      TEMPO 1602/1605 1SM BLSN
     FM160500 34022G30KT P6SM OVC012
     FM161000 34014G22KT P6SM BKN015
     FM161800 33014KT P6SM SCT015=

USA.gov is the U.S. government's official web portal to all federal, state and local government web resources and services.